DW2778 Weather Reports


Display with metric or nautical units.
time (UTC)temp
F
wind
direction
speed
MPH
gust
MPH
rain 1hr
in
rain 24hr
in
rain mn
in
humidity
%
barometer
mb
20210614232557 83 165 5.0 13.0 0.00 0.00 0.00 70 1008.6
20210614232046 84 195 5.0 13.0 0.00 0.00 0.00 69 1008.7
20210614231654 84 165 5.0 11.0 0.00 0.00 0.00 69 1008.5
20210614231046 84 169 4.0 11.0 0.00 0.00 0.00 69 1008.6
20210614230544 84 151 5.0 10.0 0.00 0.00 0.00 69 1008.6
20210614230211 84 196 4.0 12.0 0.00 0.00 0.00 69 1008.7
20210614225549 84 169 6.0 12.0 0.00 0.00 0.00 69 1008.6
20210614225103 84 172 7.0 12.0 0.00 0.00 0.00 68 1008.5
20210614224659 84 175 6.0 12.0 0.00 0.00 0.00 68 1008.6
20210614224046 84 189 7.0 12.0 0.00 0.00 0.00 68 1008.5
20210614223546 84 180 7.0 12.0 0.00 0.00 0.00 67 1008.5
20210614223141 85 183 6.0 10.0 0.00 0.00 0.00 67 1008.6
20210614222545 85 157 4.0 11.0 0.00 0.00 0.00 68 1008.6
20210614222044 85 172 4.0 12.0 0.00 0.00 0.00 68 1008.5
20210614221809 85 147 6.0 12.0 0.00 0.00 0.00 68 1008.5
20210614221046 85 143 5.0 12.0 0.00 0.00 0.00 69 1008.5
20210614220550 85 140 4.0 14.0 0.00 0.00 0.00 68 1008.6
20210614220252 85 165 8.0 14.0 0.00 0.00 0.00 67 1008.6
20210614215546 85 163 7.0 13.0 0.00 0.00 0.00 67 1008.6
20210614215046 85 180 6.0 14.0 0.00 0.00 0.00 68 1008.7
20210614214654 85 190 6.0 14.0 0.00 0.00 0.00 66 1008.6
20210614214045 85 186 6.0 14.0 0.00 0.00 0.00 67 1008.6
20210614213550 85 202 7.0 14.0 0.00 0.00 0.00 68 1008.7
20210614213157 85 153 6.0 13.0 0.00 0.00 0.00 68 1008.8
20210614212547 85 148 7.0 13.0 0.00 0.00 0.00 67 1008.8
20210614212056 86 132 6.0 13.0 0.00 0.00 0.00 66 1008.7
20210614211733 86 173 5.0 15.0 0.00 0.00 0.00 65 1008.7
20210614211046 86 132 7.0 15.0 0.00 0.00 0.00 65 1008.8
20210614210554 85 182 7.0 13.0 0.00 0.00 0.00 65 1008.8
20210614210315 85 225 5.0 12.0 0.00 0.00 0.00 68 1008.9
20210614205546 85 148 6.0 15.0 0.00 0.00 0.00 68 1008.9
20210614205052 85 132 8.0 15.0 0.00 0.00 0.00 67 1009.0
20210614204657 85 158 5.0 8.0 0.00 0.00 0.00 67 1008.9
20210614204105 85 198 4.0 10.0 0.00 0.00 0.00 66 1009.1
20210614203611 85 149 3.0 10.0 0.00 0.00 0.00 67 1009.1
20210614203131 85 198 5.0 12.0 0.00 0.00 0.00 68 1009.2
20210614202545 84 213 6.0 12.0 0.00 0.00 0.00 69 1009.2
20210614202044 84 221 3.0 14.0 0.00 0.00 0.00 70 1009.2
20210614201642 83 172 7.0 14.0 0.00 0.00 0.00 71 1009.2
20210614201045 83 106 7.0 13.0 0.00 0.00 0.00 70 1009.2
20210614200544 83 162 7.0 12.0 0.00 0.00 0.00 71 1009.3
20210614200101 83 139 7.0 16.0 0.00 0.00 0.00 70 1009.4
20210614195546 84 155 9.0 16.0 0.00 0.00 0.00 69 1009.4
20210614195049 83 124 6.0 13.0 0.00 0.00 0.00 71 1009.4
20210614194633 83 169 7.0 13.0 0.00 0.00 0.00 71 1009.5
20210614194044 83 171 8.0 14.0 0.00 0.00 0.00 70 1009.5
20210614193546 84 186 7.0 14.0 0.00 0.00 0.00 70 1009.4
20210614193148 84 158 7.0 14.0 0.00 0.00 0.00 70 1009.5
20210614192602 84 158 6.0 14.0 0.00 0.00 0.00 70 1009.7
20210614192045 83 146 7.0 14.0 0.00 0.00 0.00 70 1009.7
20210614191639 83 143 6.0 12.0 0.00 0.00 0.00 71 1009.7
20210614191047 83 190 5.0 13.0 0.00 0.00 0.00 71 1009.9
20210614190610 82 160 9.0 14.0 0.00 0.00 0.00 72 1010.0
20210614190259 81 142 5.0 14.0 0.00 0.00 0.00 72 1010.2
20210614185555 81 130 8.0 13.0 0.00 0.00 0.00 72 1010.2
20210614185053 81 136 8.0 12.0 0.00 0.00 0.00 72 1010.2
20210614184737 81 144 6.0 12.0 0.00 0.00 0.00 72 1010.1
20210614184054 81 184 7.0 12.0 0.00 0.00 0.00 72 1010.2
20210614183545 81 139 7.0 12.0 0.00 0.00 0.00 73 1010.3
20210614183140 80 92 5.0 11.0 0.00 0.00 0.00 74 1010.5
20210614182607 79 103 4.0 11.0 0.00 0.00 0.00 75 1010.5
20210614182046 79 101 8.0 11.0 0.00 0.00 0.00 74 1010.6
20210614181755 79 95 8.0 12.0 0.00 0.00 0.00 75 1010.7
20210614181046 78 88 8.0 12.0 0.00 0.00 0.00 75 1010.8
20210614180548 78 78 6.0 13.0 0.00 0.00 0.00 75 1010.9
20210614180204 79 69 9.0 13.0 0.00 0.00 0.00 74 1010.8
20210614175545 78 83 6.0 12.0 0.00 0.00 0.00 76 1010.9
20210614175044 78 111 7.0 12.0 0.00 0.00 0.00 76 1011.0
20210614174615 77 93 8.0 12.0 0.00 0.00 0.00 76 1011.1
20210614174058 78 74 6.0 12.0 0.00 0.00 0.00 73 1011.2
20210614173546 79 82 9.0 13.0 0.00 0.00 0.00 73 1011.2
20210614173129 79 103 7.0 13.0 0.00 0.00 0.00 73 1011.2
20210614172546 80 86 7.0 12.0 0.00 0.00 0.00 73 1011.2
20210614172045 79 115 4.0 11.0 0.00 0.00 0.00 74 1011.2
20210614171630 78 123 1.0 10.0 0.00 0.00 0.00 77 1011.4
20210614171050 77 59 5.0 12.0 0.00 0.00 0.00 77 1011.4
20210614170545 77 80 7.0 12.0 0.00 0.00 0.00 76 1011.4
20210614170130 77 70 7.0 11.0 0.00 0.00 0.00 77 1011.5
20210614165545 77 109 7.0 11.0 0.00 0.00 0.00 77 1011.5
20210614165047 77 64 4.0 10.0 0.00 0.00 0.00 77 1011.6
20210614164838 77 92 4.0 10.0 0.00 0.00 0.00 78 1011.6
20210614164050 77 70 7.0 12.0 0.00 0.00 0.00 77 1011.7
20210614163546 77 70 8.0 12.0 0.00 0.00 0.00 77 1011.8
20210614163217 77 86 7.0 11.0 0.00 0.00 0.00 75 1011.9
20210614162614 78 61 3.0 9.0 0.00 0.00 0.00 73 1011.9
20210614162047 79 54 4.0 11.0 0.00 0.00 0.00 71 1011.9
20210614161703 80 80 7.0 11.0 0.00 0.00 0.00 68 1011.8
20210614161054 84 59 3.0 9.0 0.00 0.00 0.00 62 1012.0
20210614160546 85 5 1.0 6.0 0.00 0.00 0.00 60 1012.0
20210614160110 85 96 1.0 9.0 0.00 0.00 0.00 58 1012.1
20210614155548 85 177 4.0 9.0 0.00 0.00 0.00 58 1012.0
20210614155124 86 251 4.0 9.0 0.00 0.00 0.00 57 1012.0
20210614154721 86 226 3.0 8.0 0.00 0.00 0.00 57 1012.1
20210614154125 85 239 4.0 9.0 0.00 0.00 0.00 57 1012.1
20210614153604 85 200 5.0 9.0 0.00 0.00 0.00 58 1012.1
20210614153244 84 246 4.0 9.0 0.00 0.00 0.00 59 1012.1
20210614152555 84 237 5.0 9.0 0.00 0.00 0.00 59 1012.2
20210614152048 84 254 4.0 10.0 0.00 0.00 0.00 58 1012.3
20210614151719 84 236 4.0 10.0 0.00 0.00 0.00 58 1012.3
20210614151045 84 239 4.0 10.0 0.00 0.00 0.00 60 1012.3
20210614150546 83 228 5.0 10.0 0.00 0.00 0.00 60 1012.3
20210614150120 83 188 4.0 14.0 0.00 0.00 0.00 60 1012.4
20210614145557 82 238 7.0 14.0 0.00 0.00 0.00 61 1012.3
20210614145046 82 237 6.0 10.0 0.00 0.00 0.00 62 1012.3
20210614144606 81 202 5.0 10.0 0.00 0.00 0.00 62 1012.3
20210614144114 81 221 5.0 10.0 0.00 0.00 0.00 63 1012.3
20210614143545 80 215 5.0 12.0 0.00 0.00 0.00 63 1012.3
20210614143113 80 251 7.0 12.0 0.00 0.00 0.00 63 1012.2
20210614142543 80 241 7.0 12.0 0.00 0.00 0.00 63 1012.3
20210614142045 79 214 5.0 12.0 0.00 0.00 0.00 63 1012.3
20210614141631 79 217 6.0 10.0 0.00 0.00 0.00 63 1012.3
20210614141045 79 192 5.0 12.0 0.00 0.00 0.00 64 1012.2
20210614140554 78 230 5.0 12.0 0.00 0.00 0.00 65 1012.3
20210614140127 78 205 5.0 10.0 0.00 0.00 0.00 66 1012.4
20210614135609 77 209 4.0 10.0 0.00 0.00 0.00 69 1012.3
20210614135051 76 153 5.0 9.0 0.00 0.00 0.00 71 1012.4
20210614134629 75 217 4.0 9.0 0.00 0.00 0.00 73 1012.4
20210614134105 75 178 4.0 8.0 0.00 0.00 0.00 75 1012.3
20210614133541 74 186 4.0 9.0 0.00 0.00 0.00 78 1012.4
20210614133127 73 196 6.0 9.0 0.00 0.00 0.00 78 1012.5
20210614132550 72 259 3.0 9.0 0.00 0.00 0.00 80 1012.6
20210614132042 71 192 5.0 10.0 0.00 0.00 0.00 80 1012.6
20210614131735 71 192 4.0 10.0 0.00 0.00 0.00 82 1012.7
20210614131100 70 198 4.0 8.0 0.00 0.00 0.00 83 1012.6
20210614130542 70 203 2.0 5.0 0.00 0.00 0.00 84 1012.7
20210614130234 70 212 1.0 6.0 0.00 0.00 0.00 85 1012.7
20210614125545 69 191 2.0 6.0 0.00 0.00 0.00 85 1012.7
20210614125051 69 217 3.0 6.0 0.00 0.00 0.00 85 1012.7
20210614124726 69 221 3.0 10.0 0.00 0.00 0.00 85 1012.7
20210614124045 69 237 5.0 10.0 0.00 0.00 0.00 85 1012.6
20210614123545 69 198 4.0 10.0 0.00 0.00 0.00 85 1012.6
20210614123138 68 198 5.0 10.0 0.00 0.00 0.00 86 1012.5
20210614122625 68 163 4.0 9.0 0.00 0.00 0.00 86 1012.4
20210614122045 68 169 4.0 10.0 0.00 0.00 0.00 86 1012.5
20210614121708 68 196 5.0 10.0 0.00 0.00 0.00 86 1012.5
20210614121127 68 163 4.0 7.0 0.00 0.00 0.00 86 1012.5
20210614120556 68 186 2.0 7.0 0.00 0.00 0.00 86 1012.5
20210614120143 68 196 2.0 7.0 0.00 0.00 0.00 86 1012.7
20210614115558 68 227 4.0 6.0 0.00 0.00 0.00 86 1012.6
20210614115047 68 220 3.0 6.0 0.00 0.00 0.00 87 1012.7
20210614114721 68 236 3.0 6.0 0.00 0.00 0.00 87 1012.7
20210614114048 67 250 3.0 9.0 0.00 0.00 0.00 87 1012.7
20210614113545 67 200 2.0 9.0 0.00 0.00 0.00 87 1012.7
20210614113229 67 173 4.0 8.0 0.00 0.00 0.00 88 1012.6
20210614112547 67 201 3.0 8.0 0.00 0.00 0.00 88 1012.5
20210614112052 67 181 3.0 8.0 0.00 0.00 0.00 88 1012.5
20210614111626 67 176 3.0 8.0 0.00 0.00 0.00 88 1012.5
20210614111048 67 188 5.0 10.0 0.00 0.00 0.00 89 1012.5
20210614110546 67 169 5.0 14.0 0.00 0.00 0.00 89 1012.5
20210614110227 67 173 6.0 14.0 0.00 0.00 0.00 90 1012.4
20210614105544 67 164 4.0 8.0 0.00 0.00 0.00 91 1012.5
20210614105055 66 157 4.0 8.0 0.00 0.00 0.00 90 1012.4
20210614104654 66 172 3.0 7.0 0.00 0.00 0.00 90 1012.4
20210614104110 66 223 3.0 7.0 0.00 0.00 0.00 90 1012.4
20210614103546 66 187 3.0 8.0 0.00 0.00 0.00 90 1012.5
20210614103251 66 222 4.0 8.0 0.00 0.00 0.00 90 1012.7
20210614102545 66 206 5.0 9.0 0.00 0.00 0.00 90 1012.6
20210614102044 66 202 5.0 10.0 0.00 0.00 0.00 90 1012.7
20210614101656 66 223 6.0 10.0 0.00 0.00 0.00 90 1012.6
20210614101049 66 229 4.0 11.0 0.00 0.00 0.00 90 1012.5
20210614100625 66 164 5.0 15.0 0.00 0.00 0.00 90 1012.1
20210614100147 66 151 7.0 15.0 0.00 0.00 0.00 90 1012.0
20210614095545 66 164 7.0 15.0 0.00 0.00 0.00 91 1011.9
20210614095100 66 175 8.0 15.0 0.00 0.00 0.00 91 1011.8
20210614094630 66 161 6.0 11.0 0.00 0.00 0.00 91 1012.0
20210614094048 66 151 5.0 9.0 0.00 0.00 0.00 91 1012.1
20210614093545 66 176 3.0 6.0 0.00 0.00 0.00 91 1012.1
20210614093201 66 198 3.0 8.0 0.00 0.00 0.00 91 1012.0
20210614092554 66 173 5.0 8.0 0.00 0.00 0.00 91 1012.1
20210614092104 66 162 4.0 10.0 0.00 0.00 0.00 91 1012.1
20210614091642 66 164 4.0 10.0 0.00 0.00 0.00 91 1012.1
20210614091106 66 167 5.0 10.0 0.00 0.00 0.00 90 1012.1
20210614090554 66 161 5.0 9.0 0.00 0.00 0.00 90 1012.1
20210614090327 66 161 4.0 8.0 0.00 0.00 0.00 90 1012.2
20210614085552 66 178 3.0 8.0 0.00 0.00 0.00 90 1012.3
20210614085045 66 181 5.0 8.0 0.00 0.00 0.00 90 1012.3
20210614084655 66 181 4.0 8.0 0.00 0.00 0.00 90 1012.4
20210614084056 66 161 4.0 8.0 0.00 0.00 0.00 90 1012.4
20210614083545 66 163 2.0 7.0 0.00 0.00 0.00 90 1012.3
20210614083235 66 159 2.0 9.0 0.00 0.00 0.00 90 1012.3
20210614082612 66 116 4.0 9.0 0.00 0.00 0.00 90 1012.2
20210614082055 66 163 5.0 9.0 0.00 0.00 0.00 90 1012.1
20210614081743 66 159 4.0 9.0 0.00 0.00 0.00 90 1012.1
20210614081048 66 151 5.0 9.0 0.00 0.00 0.00 90 1012.1
20210614080543 66 173 5.0 9.0 0.00 0.00 0.00 90 1012.3
20210614080122 66 164 4.0 9.0 0.00 0.00 0.00 91 1012.2
20210614075555 66 153 4.0 8.0 0.00 0.00 0.00 91 1012.3
20210614075050 66 163 4.0 8.0 0.00 0.00 0.00 90 1012.4
20210614074628 66 161 4.0 8.0 0.00 0.00 0.00 91 1012.4
20210614074045 66 156 3.0 7.0 0.00 0.00 0.00 90 1012.5
20210614073544 66 222 1.0 8.0 0.00 0.00 0.00 90 1012.8
20210614073117 66 169 3.0 11.0 0.00 0.00 0.00 90 1012.8
20210614072559 66 169 6.0 12.0 0.00 0.00 0.00 90 1012.7
20210614072109 66 161 7.0 12.0 0.00 0.00 0.00 90 1012.7
20210614071621 66 154 5.0 10.0 0.00 0.00 0.00 90 1012.8
20210614071050 66 165 6.0 10.0 0.00 0.00 0.00 90 1013.1
20210614070548 66 163 5.0 9.0 0.00 0.00 0.00 90 1013.0
20210614070121 66 161 4.0 8.0 0.00 0.00 0.00 90 1013.2
20210614065544 66 159 4.0 7.0 0.00 0.00 0.00 89 1013.2
20210614065045 66 153 4.0 6.0 0.00 0.00 0.00 89 1013.3
20210614064757 66 148 3.0 5.0 0.00 0.00 0.00 88 1013.4
20210614064045 66 146 2.0 5.0 0.00 0.00 0.00 88 1013.5
20210614063546 66 153 1.0 3.0 0.00 0.00 0.00 87 1013.5
20210614063221 66 153 1.0 3.0 0.00 0.00 0.00 87 1013.6
20210614062552 66 153 1.0 4.0 0.00 0.00 0.00 87 1013.5
20210614062044 66 153 2.0 6.0 0.00 0.00 0.00 87 1013.4
20210614061646 66 155 2.0 6.0 0.00 0.00 0.00 87 1013.4
20210614061107 67 148 3.0 7.0 0.00 0.00 0.00 86 1013.4
20210614060548 67 140 3.0 8.0 0.00 0.00 0.00 86 1013.4
20210614060151 67 148 3.0 8.0 0.00 0.00 0.00 86 1013.4
20210614055545 67 144 3.0 8.0 0.00 0.00 0.00 86 1013.3
20210614055045 67 166 4.0 8.0 0.00 0.00 0.00 85 1013.4
20210614054819 67 155 3.0 8.0 0.00 0.00 0.00 85 1013.3
20210614054046 67 165 4.0 10.0 0.00 0.00 0.00 85 1013.4
20210614053548 67 170 5.0 10.0 0.00 0.00 0.00 84 1013.3
20210614053206 67 167 4.0 11.0 0.00 0.00 0.00 84 1013.4
20210614052551 67 169 6.0 12.0 0.00 0.00 0.00 84 1013.3
20210614052045 67 169 6.0 12.0 0.00 0.00 0.00 83 1013.2
20210614051647 67 130 5.0 13.0 0.00 0.00 0.00 83 1013.3
20210614051049 67 155 6.0 13.0 0.00 0.00 0.00 83 1013.3
20210614050544 67 146 6.0 11.0 0.00 0.00 0.00 84 1013.1
20210614050205 67 177 5.0 11.0 0.00 0.00 0.00 84 1013.2
20210614045603 67 208 5.0 10.0 0.00 0.00 0.00 84 1013.5
20210614045045 67 165 4.0 10.0 0.00 0.00 0.00 84 1013.5
20210614044641 67 157 3.0 8.0 0.00 0.00 0.00 84 1013.5
20210614044103 67 165 2.0 7.0 0.00 0.00 0.00 84 1013.6
20210614043608 67 167 3.0 5.0 0.00 0.00 0.00 84 1013.6
20210614043238 67 167 3.0 5.0 0.00 0.00 0.00 84 1013.5
20210614042547 67 144 2.0 5.0 0.00 0.00 0.00 83 1013.6
20210614042050 67 0 1.0 5.0 0.00 0.00 0.00 83 1013.5
20210614041759 67 146 2.0 7.0 0.00 0.00 0.00 83 1013.5
20210614041045 67 148 2.0 7.0 0.00 0.00 0.00 83 1013.5
20210614040545 67 157 4.0 7.0 0.00 0.00 0.00 83 1013.4
20210614040246 67 160 4.0 8.0 0.00 0.00 0.00 83 1013.5
20210614035545 67 164 4.0 8.0 0.00 0.00 0.00 83 1013.5
20210614035106 67 163 4.0 8.0 0.00 0.00 0.00 83 1013.7
20210614034629 67 167 3.0 7.0 0.00 0.00 0.00 82 1013.8
20210614034046 67 185 3.0 6.0 0.00 0.00 0.00 82 1013.9
20210614033559 67 167 3.0 6.0 0.00 0.00 0.00 82 1013.9
20210614033156 67 169 3.0 7.0 0.00 0.00 0.00 82 1014.0
20210614032549 67 165 3.0 7.0 0.00 0.00 0.00 82 1014.0
20210614032112 67 167 0.0 5.0 0.00 0.00 0.00 82 1013.9
20210614031712 67 0 2.0 6.0 0.00 0.00 0.00 82 1014.0
20210614031048 67 165 2.0 6.0 0.00 0.00 0.00 82 1014.0
20210614030607 67 161 0.0 6.0 0.00 0.00 0.00 81 1013.9
20210614030138 67 0 0.0 5.0 0.00 0.00 0.00 81 1014.1
20210614025543 67 0 1.0 5.0 0.00 0.00 0.00 81 1014.2
20210614025109 67 185 1.0 5.0 0.00 0.00 0.00 81 1014.1
20210614024703 67 165 3.0 6.0 0.00 0.00 0.00 81 1014.0
20210614024045 67 161 3.0 6.0 0.00 0.00 0.00 81 1014.1
20210614023550 67 153 2.0 5.0 0.00 0.00 0.00 80 1014.2
20210614023159 67 167 2.0 8.0 0.00 0.00 0.00 80 1014.2
20210614022545 67 158 3.0 8.0 0.00 0.00 0.00 80 1014.2
20210614022056 68 131 4.0 8.0 0.00 0.00 0.00 80 1014.3
20210614021621 68 158 4.0 8.0 0.00 0.00 0.00 80 1014.4
20210614021045 68 160 3.0 7.0 0.00 0.00 0.00 80 1014.6
20210614020547 68 226 3.0 7.0 0.00 0.00 0.00 80 1014.8
20210614020154 68 209 2.0 7.0 0.00 0.00 0.00 80 1014.6
20210614015545 68 192 3.0 8.0 0.00 0.00 0.00 79 1014.5
20210614015046 68 179 3.0 8.0 0.00 0.00 0.00 79 1014.4
20210614014629 68 204 4.0 9.0 0.00 0.00 0.00 79 1014.5
20210614014046 68 213 4.0 9.0 0.00 0.00 0.00 79 1014.5
20210614013546 68 196 3.0 7.0 0.00 0.00 0.00 79 1014.2
20210614013136 68 196 3.0 7.0 0.00 0.00 0.00 79 1014.0
20210614012547 68 195 3.0 7.0 0.00 0.00 0.00 79 1013.9
20210614012102 68 187 2.0 9.0 0.00 0.00 0.00 79 1013.7
20210614011609 68 172 4.0 9.0 0.00 0.00 0.00 78 1013.6
20210614011043 68 168 3.0 10.0 0.00 0.00 0.00 77 1013.5
20210614010604 68 154 5.0 13.0 0.00 0.00 0.00 77 1013.6
20210614010135 68 170 7.0 13.0 0.00 0.00 0.00 77 1013.4
20210614005552 68 170 5.0 14.0 0.00 0.00 0.00 77 1013.4
20210614005109 68 137 7.0 14.0 0.00 0.00 0.00 76 1013.3
20210614004632 68 149 7.0 13.0 0.00 0.00 0.00 76 1013.3
20210614004100 68 155 6.0 13.0 0.00 0.00 0.00 76 1013.2
20210614003555 68 179 5.0 14.0 0.00 0.00 0.00 77 1013.1
20210614003243 68 176 6.0 14.0 0.00 0.00 0.00 77 1013.1
20210614002617 68 186 5.0 14.0 0.00 0.00 0.00 77 1013.0
20210614002044 68 155 6.0 14.0 0.00 0.00 0.00 77 1012.9
20210614001731 69 173 5.0 13.0 0.00 0.00 0.00 77 1013.1
20210614001046 69 173 7.0 13.0 0.00 0.00 0.00 77 1013.2
20210614000548 69 161 5.0 14.0 0.00 0.00 0.00 77 1013.2
20210614000150 69 153 6.0 14.0 0.00 0.00 0.00 76 1013.2
20210613235620 69 146 7.0 16.0 0.00 0.00 0.00 76 1013.4
20210613235049 69 153 8.0 16.0 0.00 0.00 0.00 76 1013.4
20210613234716 69 146 8.0 14.0 0.00 0.00 0.00 75 1013.6
20210613234050 69 162 7.0 15.0 0.00 0.00 0.00 74 1013.5
20210613233549 69 146 8.0 15.0 0.00 0.00 0.00 74 1013.3
20210613233131 69 201 6.0 12.0 0.00 0.00 0.00 74 1013.4